Main page
METAR-TAF:

METAR-TAF

Airports :

Gatwick Airport

London-Gatwick, England

latitude: 51-09N, longitude: 000-11W, elevation: 62 m

Current weather observation

The report was made 18 minutes ago, at 13:20 UTC
Wind 9 kt from the East, varying between Northeast and Southeast
Temperature 21°C
Humidity 35%
Pressure 1032 hPa
Visibility 10 km or more
no clouds below 1500 m and no cumulonimbus

METAR: EGKK 281320Z 08009KT 050V130 CAVOK 21/05 Q1032

Time: 14:38 (13:38 UTC)

Forecast

The report was made 2 hours and 42 minutes ago, at 10:56 UTC
Forecast valid from 28 at 12 UTC to 29 at 18 UTC
Wind 8 kt from the East
Visibility 10 km or more
no clouds below 1500 m and no cumulonimbus

TAF: EGKK 281056Z 2812/2918 08008KT CAVOK

Weather observations and forecasts of more than 4000 airports (METAR and TAF reports).

The available stations are represented by yellow and red dots on the map.

Hover mouse over dot to see the name of the station.

Then click to see weather observations and forecasts.

To change the map : click on the green buttons with a black cross to zoom in, on the green button with a dash to zoom out, or on the green arrows for adjacent maps.


METAR-TAF: